Regional Weather Roundup
Issued by NWS Wakefield, VA

Home | Current Version | Previous Version | Graphics & Text | Print | Product List | Glossary On
Versions: 1 2 3 4 5 6 7 8 9 10 11 12 13 14 15 16 17 18 19 20 21 22 23 24 25 26 27 28 29 30 31 32 33 34 35 36 37 38 39 40 41 42 43 44 45 46 47 48 49 50
000
ASUS41 KAKQ 050515
RWRAKQ

REGIONAL WEATHER ROUNDUP
NATIONAL WEATHER SERVICE WAKEFIELD VA
100 AM EDT WED AUG 05 2015

Note: "fair" indicates few or no clouds below 12,000 feet with no
significant weather and/or obstructions to visibility. * = Denotes
station may not report precipitation (e.g., rain,snow,etc.),
thunder or fog.

VAZ042-051-052>054-056-050600-
NORTHERN VIRGINIA

CITY           SKY/WX    TMP DP  RH WIND       PRES   REMARKS
WASH NATIONAL  PTCLDY    78  70  76 NW7       29.94R
DULLES         PTCLDY    73  70  90 NW7       29.95R
FORT BELVOIR   CLEAR     72  69  90 CALM      29.94R
QUANTICO       CLEAR     73  67  81 NW7       29.94R
FREDERICKSBRG* CLEAR     77  68  74 NW6       29.93S
STAFFORD*      CLEAR     70  65  85 CALM      29.99R
WARRENTON      CLEAR     67  67 100 CALM      29.95S FOG
CULPEPER*      CLEAR     68  66  94 CALM      29.96S
MANASSAS*      CLEAR     68  68 100 CALM      29.95R
LEESBURG*      CLOUDY    72  72 100 W8        29.96S
WINCHESTER     CLEAR     68  66  94 SE3       29.98R
FRONT ROYAL*   FAIR      68  68 100 CALM      29.97S
LURAY*         FAIR      68  68 100 CALM      29.99S
$$

VAZ048-049-060>072-079>083-050600-
CENTRAL AND SOUTH CENTRAL VIRGINIA

CITY           SKY/WX    TMP DP  RH WIND       PRES   REMARKS
RICHMOND       MOCLDY    81  73  76 SW5       29.94R
CHESTERFIELD*  FAIR      79  63  57 SW3       29.96R
PETERSBURG*    PTCLDY    79  77  95 S3        29.96S
HANOVER        CLEAR     74  71  91 CALM      29.96R
TAPPAHANNOCK*  CLEAR     77  73  86 CALM      29.94R
QUINTON*       MOCLDY    80  74  82 S3        29.94R
CHARLOTTSVILLE PTCLDY    75  65  70 W5        29.97R
GORDONSVILLE*  FAIR      72  68  88 NW5       29.95F
ORANGE*        CLEAR     72  68  88 CALM      29.98R
LOUISA*        CLEAR     73  68  83 NW5       29.95S
BUMPASS*       FAIR      72  69  90 N5        29.95R
FARMVILLE*     PTCLDY    76  69  78 W3        29.95S
CREWE*         FAIR     N/A N/A N/A W3        29.97R
FORT PICKETT*  FAIR      73  72  96 S5        29.97S
CHASE CITY*    FAIR      76  76 100 CALM      29.98S
CLARKSVILLE*   FAIR      73  72  94 S5        29.98R
SOUTH HILL*    PTCLDY    75  72  91 CALM      30.04R
LAWRENCEVILLE* FAIR      75  72  88 SW3       29.97S
EMPORIA*       PTCLDY    75  72  88 CALM      29.98S
$$

VAZ088>098-050600-
SOUTHEAST VIRGINIA

CITY           SKY/WX    TMP DP  RH WIND       PRES   REMARKS
NORFOLK        CLEAR     79  73  82 S14       29.94F
VIRGINIA BEACH MOCLDY    81  74  79 SW9       29.94F
NORFOLK NAVAL  PTCLDY    78  74  87 S12G17    29.95F
WEST POINT*    PTCLDY    83  71  69 SW7       29.94S
SALUDA*        FAIR      80  73  81 SW8       29.92S
NEWPORT NEWS   PTCLDY    80  73  79 S13       29.94S
LANGLEY AFB    PTCLDY    79  73  83 S15       29.94R
FORT EUSTIS    PTCLDY    79  79 100 S8        29.93R
WILLIAMSBURG*  PTCLDY    82  75  78 SW6       29.96S
HR EXEC AP*    FAIR      77  72  83 S7        29.97F
FRANKLIN*      PTCLDY    76  73  88 S9        29.96S
WAKEFIELD      PTCLDY    79  72  79 SW6       29.95S
$$

VAZ020-022-025-037-045-050600-
WEST CENTRAL AND SOUTHWEST VIRGINIA

CITY           SKY/WX    TMP DP  RH WIND       PRES   REMARKS
STAUNTON*      MOCLDY    77  63  61 CALM      30.03S
WAYNESBORO*    FAIR      76  62  62 W8        30.02S
HOT SPRINGS VA CLOUDY    68  64  87 W13       30.14S
LYNCHBURG      MOCLDY    71  69  93 SW5       30.00S
DANVILLE       MOCLDY    78  66  66 W7        29.99S
SOUTH BOSTON*  FAIR      72  71  95 CALM      29.98S
MARTINSVILLE   MOCLDY    71  71 100 CALM      30.04R
ROANOKE        CLOUDY    78  62  57 W12       30.03S
BLACKSBURG     CLOUDY    70  65  85 W3        30.13R
DUBLIN*          N/A     73  65  74 W5        30.12R
MARION*        MOCLDY    70  66  88 SW8       30.17R
HILLSVILLE*    MOCLDY    71  64  81 W7        30.13R
RICHLANDS*     FAIR      67  65  94 CALM      30.17R
WISE*          CLOUDY    72  61  68 W3        30.17F
ABINGDON*      PTCLDY    69  65  89 CALM      30.14R
$$

MDZ021>025-VAZ099-100-050600-
SOUTHERN MARYLAND AND THE DELMARVA PENINSULA

CITY           SKY/WX    TMP DP  RH WIND       PRES   REMARKS
PATUXENT RIVER MOCLDY    78  71  79 W6        29.91R
BAY BRIDGE APT   N/A     73  72  94 E3        29.93R
LEONARDTOWN    PTCLDY    73  68  83 CALM      29.94R
DOVER          CLOUDY    73  73 100 VRB2      29.93R
GEORGETOWN     TSTM      70  68  93 S10       29.93R
EASTON         MOCLDY    73  73 100 E5        29.96R
CAMBRIDGE      MOCLDY    77  72  83 CALM      29.91R
SALISBURY      TSTM      71  69  93 N10       29.95R FOG
OCEAN CITY     CLOUDY    76  66  71 NW7       29.93R
WALLOPS ISLAND MOCLDY    76  75  97 S17       29.91S
ACCOMACK*      PTCLDY   N/A N/A N/A SW9G16    29.92S
$$

NCZ012>017-030>032-050600-
NORTH CENTRAL AND EASTERN NORTH CAROLINA

CITY           SKY/WX    TMP DP  RH WIND       PRES   REMARKS
ROANOKE RAPIDS FAIR      73  72  94 SW5       29.98S
RALEIGH        MOCLDY    77  72  84 CALM      30.00R
ELIZABETH CITY PTCLDY    76  75  97 SW5       29.95F
AHOSKIE*       PTCLDY   N/A N/A N/A S3        29.97F
EDENTON*         N/A     78  75  91 SW7       29.96F
CURRITUCK*     PTCLDY    79  74  86 CALM      29.96F
KILL DEVIL HLS PTCLDY    78  74  87 SW5       29.94F
MANTEO         PTCLDY    79  76  92 SW9       29.96F
CAPE HATTERAS  CLOUDY    79  76  90 W10       29.96F
TARBORO*         N/A     76  72  89 CALM      29.98F
GOLDSBORO      CLEAR     75  74  95 CALM      29.97S
WASHINGTON     CLEAR     74  72  95 CALM      29.98S
GREENVILLE     CLEAR     77  75  94 CALM      30.00S
NEW BERN       CLEAR     78  74  87 W3        29.98S
WILMINGTON     CLEAR     77  76  96 CALM      29.99S
$$

VAZ048-050600-
ELSEWHERE

CITY           SKY/WX    TMP DP  RH WIND       PRES   REMARKS
HARRISBURG PA  PTCLDY    69  60  73 CALM      29.93S
BALTIMORE      MOCLDY    71  70  96 CALM      29.93R
ANNAPOLIS      CLEAR     77  72  84 NW3       29.93R
ANDREWS AFB    CLEAR     73  71  92 N3        29.93R
PHILADELPHIA   MOCLDY    78  53  41 CALM      29.93R
HENDERSON NC   PTCLDY    76  70  81 S5        30.00R
GREENSBORO     PTCLDY    77  66  68 W5        30.02R
ROCKY MOUNT    PTCLDY    75  72  90 CALM      29.98S
$$

VAZ100-050600-
MARINE

STATION/POSITION TIME  TEMP    WIND        PRES    WAVE   SWELL
                       AIR SEA DIR/SP/G            HT/PER HT/PER
                 (UTC) (F)     (DEG/KT/KT) (MB)    (FT/S) (FT/S)
BRANDYWINE LGT   0400   73 76  110/  9/ 12 1013.0F
CAPE MAY NJ      0400   73 78   80/  3/  5 1012.5F
LEWES DE         0400   75 75  200/  4/  5 1012.7F
15NM E FENWICK I 0450   78 79  240/  8/ 10 1013.6R
OCEAN-CITY-INLET 0400   76 72  350/  9/ 10 1012.4R
WACHAPREAGUE VA  0400   79 84  210/ 13/ 19 1013.2F
GOOSES REEF MD   0500   79 83  350/ 12/ 14 1014.1R
COVE POINT MD    0400   80     320/  6/  7 1013.2R
SOLOMONS ISLAND  0400      84                N/A
BISHOPS HEAD MD  0400   81 83  180/ 16/ 19 1010.4F
PINEY POINT MD   0400          270/  5/  7   N/A
POTOMAC MD       0500   81 83  290/  8/ 10 1011.8R   2/ 3
CAMBRIDGE MD     0400   77 85   20/ 10/ 13 1011.7R
LEWISETTA VA     0400   81 85  310/  8/ 10 1012.2R
RAPPAHANNOCK LGT 0400          190/ 20/ 23 1013.5F
STINGRAY PT      0500   83 83  220/ 16/ 19 1013.0R   2/ 3
YORK RVR RNG VA  0400   82     210/ 18/ 21 1012.7R
YORKTOWN VA      0400   81 84  200/ 11/ 15 1013.2R
JAMESTOWN VA     0500   80 85  220/ 12/ 14   N/A
DOMINION TERM VA 0400   80     190/ 13/ 16 1013.6R
KIPTOPEKE VA     0400      82  210/ 18/ 22   N/A
CHES BAY BRIDGE  0400   80 79  180/ 13/ 17 1013.5R
CAPE HENRY VA    0400   79     190/ 12/ 17   N/A
CHESAPEAKE LGHT  0400   78     190/ 22/ 24 1014.4R
WILLOUBY STN VA  0400   80     210/ 20/ 23 1014.6R
CAPE HENRY BUOY  0428      77                N/A     4/ 5
1ST LANDING BUOY 0500      81              1013.4F   2/ 3
CAPE CHARLES BUO 0426      74                N/A     3/ 5   2/11
OFFSHORE WE BUOY 0411      81                N/A     5/ 6   2/11
64NM E OF VA BCH 0450   81 81  210/ 21/ 25 1013.8F   5/ 6   2/11
DUCK PIER NC     0400   79 63  180/ 14/ 18 1013.5F
44100 DUCK FRF   0424      78                N/A     3/ 6
44056 DUCK FRF   0411      64                N/A     3/ 6
OREGON INLET NC  0400   80 82  180/ 12/ 16 1014.7F
HATTERAS NC      0400   79 80  230/  7/ 10 1014.5F
DIAMOND SHLS NC  0450   83 84  220/ 23/ 29 1014.0F   6/ 6   2/11
CAPE LOOKOUT NC  0500   81     240/ 11/ 16 1014.5R
$$



USA.gov is the U.S. government's official web portal to all federal, state and local government web resources and services.